#timestamp,LO_Frequency,Hit,StdDev 
1556539215.1,286046996.6,N
1556539216.0,286046996.6,N
1556539235.8,286046999.4,N
1556539255.6,286047000.8,N
1556539275.5,286046997.2,N
1556539295.3,286046997.9,N
1556539315.2,286046997.7,N
1556539335.9,286046997.2,N
1556539355.7,286046996.6,N
1556539375.6,286046997.9,N
1556539395.4,286046995.7,Y
1556539415.2,286046996.8,P
1556539435.1,286046996.6,P
1556539436.0,286046996.6,P
1556539455.8,286046999.6,N
1556539475.7,286046996.7,N
1556539495.5,286046996.7,Y
1556539515.3,286046998.9,P
1556539535.2,286046997.0,P
1556539555.0,286046996.5,P
1556539555.9,286046996.5,Y
1556539575.8,286047000.0,P
1556539595.6,286047000.1,N
1556539615.4,286047002.1,N
1556539635.3,286047002.7,N
1556539655.1,286047004.2,N
1556539675.8,286047003.5,N
1556539695.7,286047003.0,N
1556539715.5,286047006.9,Y
1556539735.4,286047005.7,P
1556539755.2,286047004.5,N
1556539775.0,286047004.8,N
1556539775.9,286047004.8,Y
1556539795.8,286047001.1,P
1556539815.6,286047001.1,N
1556539835.4,286046998.9,N
1556539855.3,286046998.4,N
1556539875.1,286046996.7,N
1556539895.9,286046996.8,N
1556539915.7,286046997.0,N
1556539935.6,286046999.1,N
1556539955.4,286046996.5,N
1556539975.2,286046999.6,N
1556539995.1,286047001.0,N
1556539996.0,286047001.0,N
1556540015.8,286047000.9,N
1556540035.6,286046998.1,N
1556540055.5,286047000.7,N
1556540075.3,286047002.6,N
1556540095.2,286047001.0,N
1556540115.9,286047000.5,N
1556540135.7,286047000.0,N
1556540155.5,286047002.0,N
1556540175.3,286047001.3,N
1556540195.2,286047002.6,N
1556540215.0,286047000.4,N
1556540215.9,286047000.4,N
1556540235.8,286047000.5,N
1556540255.6,286047000.8,N
1556540275.4,286046998.4,N
1556540295.3,286046999.1,N
1556540315.1,286046999.0,N
1556540335.8,286047001.6,N
1556540355.7,286047003.9,N
1556540375.5,286047003.2,N
1556540395.4,286047003.6,N
1556540415.2,286047004.0,N
1556540435.0,286047003.6,N
1556540435.9,286047003.6,N
1556540455.8,286047004.1,N
1556540475.6,286047002.4,N
1556540495.4,286047002.6,N
1556540515.3,286047000.0,N
1556540535.1,286047002.5,N
1556540555.9,286047000.2,N
1556540575.7,286046999.8,N
1556540595.5,286047002.1,N
1556540615.4,286047004.4,N
1556540635.2,286047002.1,N
1556540655.0,286047002.5,N
1556540656.0,286047002.5,N
1556540675.8,286047002.6,N
1556540695.6,286047004.3,N
1556540715.5,286047003.9,N
1556540735.3,286047001.3,N
1556540755.1,286047001.7,N
1556540775.9,286047002.8,N
1556540795.7,286047001.9,N
1556540815.5,286047002.1,N
1556540835.4,286047001.9,N
1556540855.2,286047002.4,N
1556540875.1,286047001.8,N
1556540876.0,286047001.8,N
1556540895.8,286047001.6,N
1556540915.6,286047000.0,N
1556540935.5,286047000.9,N
1556540955.3,286047000.4,N
1556540975.8,286047000.2,N
1556540995.7,286047002.5,N
1556541015.5,286047001.8,N
1556541035.3,286047004.1,Y
1556541055.2,286046999.7,P
1556541075.0,286047001.8,N
1556541075.9,286047001.8,N
1556541095.8,286047003.8,Y
1556541115.6,286047002.6,P
1556541135.4,286046999.7,N
1556541155.3,286047000.4,N
1556541175.1,286047002.2,N
1556541195.8,286047002.3,N
1556541215.7,286046999.8,N
1556541235.5,286047001.0,N
1556541255.3,286047000.5,N
1556541275.2,286047001.9,N
1556541295.0,286047002.5,N
1556541295.9,286047002.5,N
1556541315.8,286047001.9,N
1556541335.6,286047003.8,Y
1556541355.4,286047000.0,P
1556541375.3,286046999.2,N
1556541395.1,286046999.2,N
1556541415.9,286046998.8,N
1556541435.7,286046996.9,Y
1556541455.5,286046999.6,P
1556541475.4,286046999.0,P
1556541495.2,286047000.7,N
1556541515.0,286047000.8,N
1556541516.0,286047000.8,N
1556541535.8,286046998.8,N
1556541555.6,286046999.1,N
1556541575.5,286046998.7,N
1556541595.3,286046998.3,N
1556541615.1,286046999.0,N
1556541635.9,286046999.4,N
1556541655.7,286046996.8,Y
1556541675.6,286046999.6,P
1556541695.4,286046998.3,P
1556541715.2,286047001.0,N
1556541735.1,286046999.8,N
1556541736.0,286046999.8,N
1556541755.8,286046999.9,N
1556541775.6,286047000.0,N
1556541795.5,286047000.4,N
1556541815.3,286046998.5,N
1556541835.2,286046999.5,N
1556541855.9,286046996.9,Y
1556541875.7,286046998.4,P
1556541895.6,286047000.0,N
1556541915.4,286046998.5,N
1556541935.2,286046999.2,N
1556541955.1,286046998.3,N
1556541956.0,286046998.3,N
1556541975.8,286046998.7,N
1556541995.7,286046998.1,Y
1556542015.5,286047002.5,P
1556542035.3,286047000.2,N
1556542055.2,286047000.8,N
1556542075.0,286046999.7,N
1556542075.9,286046999.7,N
1556542095.8,286047002.1,N
1556542115.6,286047001.5,N
1556542135.4,286047001.4,N
1556542155.3,286047002.2,N
1556542175.1,286047002.4,N
1556542195.8,286047002.7,N
1556542215.7,286047000.6,N
1556542235.5,286047000.4,N
1556542255.4,286047001.1,N
1556542275.2,286047000.7,N
1556542295.0,286046999.0,N
1556542295.9,286046999.0,N
1556542315.8,286046998.1,N
1556542335.6,286046998.4,N
1556542355.4,286047002.7,N
1556542375.3,286047002.3,N
1556542395.1,286046999.7,N
1556542415.9,286047002.6,N
1556542435.7,286047000.1,N
1556542455.5,286047002.7,N
1556542475.4,286047002.3,N
1556542495.2,286047000.3,N
1556542545.1,286047000.5,E
1556542555.0,286046999.7,N
1556542555.9,286046999.7,P
1556542575.7,286047000.5,P
1556542595.6,286047000.8,N
1556542615.4,286047000.8,N
1556542635.3,286046998.6,N
1556542655.1,286047001.1,N
1556542656.0,286047001.1,N
1556542675.8,286047000.7,N
1556542695.7,286046998.7,N
1556542715.5,286046999.5,N
1556542735.3,286046999.4,N
1556542755.2,286046998.1,N
1556542775.0,286046999.7,N
1556542775.9,286046999.7,N
1556542795.8,286047002.7,N
